CZ-8 R/B

Last updated on Mon Jul 06 2026 00:02:04 GMT+0000 (Coordinated Universal Time)

1 69419U 26125U 26186.33844572 .00000219 00000+0 63021-4 0 9991 2 69419 88.9976 278.2783 0068885 22.2664 338.1502 14.39873491 4333
UTC large
Height (km)
Speed (km/s)
/
Latitude / Longitude
Inclination (degrees)
Orbital Period (minutes)
Azimuth
Elevation
Range (km)
Doppler Factor

Next 0 passes for location: London (51.5072 / 0.1276)

No passes found over London.
CZ-8 R/B